Location: Butte
(46.0040°N, 112.5340°W)
Time: 17:25:20
(UTC-06:00)

Daily predictions for brighter satellites

Satellite Brightness Start Highest point End
(mag) Time Altitude Azimuth Time Altitude Azimuth Time Altitude Azimuth
Cosmos 158 Rocket 4.0 21:33:39 10° SSW 21:38:43 85° ESE 21:43:59 10° NNE
SeaSat 1 2.6 21:34:08 10° SE 21:39:02 69° ENE 21:43:58 10° NNW
Cosmos 2228 3.5 21:35:11 10° N 21:39:29 48° ENE 21:43:44 10° SSE
Cosmos 1980 4.3 21:35:06 10° SW 21:40:45 67° WNW 21:46:26 10° NNE
Cosmos 1025 Rocket 3.3 21:39:30 10° SSW 21:43:54 74° WNW 21:48:18 10° N
Cosmos 1892 Rocket 3.6 21:39:44 10° S 21:44:09 78° E 21:48:39 10° NNE
Cosmos 2251 Rocket 3.6 21:40:39 10° SSW 21:45:57 81° ESE 21:51:21 10° NNE
YAOGAN 6 3.9 21:47:50 10° SE 21:51:01 27° ENE 21:54:14 10° N
Cosmos 1943 Rocket 4.4 21:52:37 10° NNE 21:54:46 12° NE 21:56:56 10° ENE
ALOS 4.0 21:50:35 10° SSW 21:54:47 32° W 21:59:00 10° NNW
Terra 3.8 21:53:21 10° E 21:55:58 15° ENE 21:58:36 10° NNE
Atlas Centaur 2 4.3 21:53:08 10° SSW 21:57:53 17° SSE 22:02:51 10° ESE
Nimbus 7 Rocket 4.4 21:52:31 10° NNE 21:58:31 69° ESE 22:04:24 10° S
SL-8 R/B 3.7 21:55:08 10° WSW 21:59:58 89° S 22:04:51 10° ENE
Tsikada Rocket 4.4 21:54:07 10° SSE 22:00:11 47° E 22:06:15 10° NNE
Cosmos 1939 Rocket 3.1 21:56:52 10° S 22:01:02 76° W 22:05:12 10° NNW
Meteor 1-15 Rocket 4.2 21:56:58 10° N 22:02:35 86° E 22:08:13 10° S
COSMOS 2455 3.9 21:58:30 10° SSE 22:03:04 23° ESE 22:07:40 10° NE
Envisat 3.0 21:58:07 10° SSE 22:03:13 88° ENE 22:08:20 10° NNW
Cosmos 2237 Rocket 3.3 21:58:14 10° SW 22:03:40 49° WNW 22:09:10 10° NNE
MetOp-A 4.3 21:59:09 10° SSE 22:04:26 64° ENE 22:09:45 10° N
ERS-1 Rocket 3.9 21:59:54 10° S 22:04:44 48° W 22:09:37 10° NNW
PSLV R/B 3.1 22:03:02 10° SSE 22:06:07 88° ENE 22:09:14 10° NNW
Cosmos 2285 Rocket 4.3 22:01:02 10° NNW 22:07:20 71° WSW 22:13:37 10° S
Cosmos 2278 Rocket 4.0 22:03:28 10° NW 22:08:11 28° WSW 22:12:54 10° SSW
ATLAS 3B R/B 4.3 22:05:14 10° SE 22:09:45 17° ESE 22:14:17 10° ENE
SL-24 R/B - RUBIN 2 4.5 22:09:00 10° SW 22:14:30 79° NW 22:20:47 10° NE
Cosmos 2058 Rocket 4.0 22:11:49 10° NNW 22:16:03 46° W 22:20:12 10° SSW
Lacrosse 5 rocket 1.4 22:12:54 10° SW 22:16:49 76° NW 22:20:56 10° NE
Abrixas rocket 2.9 22:16:18 10° W 22:19:35 42° SSW 22:21:51 17° SE
Cosmos 1666 3.2 22:16:07 10° NNW 22:19:59 62° W 22:23:50 10° S
USA 234 3.4 22:15:11 12° SE 22:21:14 70° SW 22:27:49 10° NW
Cosmos 1464 Rocket 4.4 22:15:53 10° NNW 22:21:55 62° W 22:27:58 10° S
Cosmos 2369 Rocket 3.2 22:18:20 10° NNW 22:23:32 35° NE 22:28:01 13° ESE
Aureole 2 Rocket 2.5 22:20:26 10° SSW 22:24:24 82° ESE 22:28:02 10° NNE
Okean 2 4.3 22:23:12 10° SSW 22:27:16 50° WNW 22:31:22 10° N
Cosmos 1602 Rocket 3.6 22:23:26 10° S 22:27:55 84° E 22:32:25 10° N
SL-16 R/B 2.7 22:24:19 10° SW 22:29:55 65° WNW 22:35:34 10° NNE
Cosmos 1825 Rocket 4.5 22:31:07 18° SE 22:33:46 32° E 22:37:45 10° NNE
ARGOS 3.3 22:29:43 15° SSE 22:34:11 68° ENE 22:39:36 10° N
H-2A R/B 2.9 22:31:07 16° ESE 22:34:29 34° ENE 22:39:00 10° N
Cosmos 1812 Rocket 3.5 22:31:25 10° N 22:35:49 88° E 22:39:23 15° S
Cosmos 1461 3.1 22:33:00 10° NW 22:37:19 64° WSW 22:40:09 19° SSE
NOAA 11 4.3 22:33:57 16° SSE 22:38:15 67° ENE 22:43:39 10° N
UNK 4.2 22:33:43 10° NNE 22:39:05 87° WNW 22:44:41 10° SSW
Cosmos 2034 Rocket 4.5 22:32:54 10° NNW 22:39:11 62° W 22:45:25 10° S
Cosmos 1992 Rocket 4.3 22:34:56 10° NNW 22:40:06 57° ENE 22:43:40 20° SE
USA 245 4.3 22:35:19 13° SSE 22:40:57 88° WSW 22:46:21 10° NNW
Cosmos 1634 Rocket 4.2 22:36:20 10° N 22:42:25 58° ENE 22:46:54 19° SSE
SPOT 1/Viking Rocket 3.6 22:38:23 15° SSE 22:42:48 84° WSW 22:47:59 10° NNW
Cosmos 1238 4.1 22:41:32 18° S 22:43:47 71° E 22:46:47 10° NNE
Cosmos 1346 Rocket 3.9 22:45:39 22° ESE 22:46:53 26° E 22:50:12 10° NE
Cosmos 1515 3.7 22:48:48 20° S 22:51:20 65° E 22:55:11 10° NNE
CZ-4 R/B 3.9 22:48:04 10° NNE 22:53:03 76° ESE 22:57:41 12° S
Geosat 4.0 22:50:09 10° NE 22:55:07 58° ESE 23:00:04 10° SSW
Cosmos 1066 Rocket 4.4 22:53:02 18° SSE 22:57:07 56° E 23:02:46 10° NNE
Cosmos 1603 3.6 22:52:54 10° SSW 22:58:32 89° ESE 23:04:11 10° NNE
SPOT 5 4.4 22:57:36 10° SSW 23:01:23 27° W 23:05:07 10° NW
Spot 4 4.2 23:06:33 26° SE 23:09:00 52° ENE 23:13:39 10° N
Cosmos 2279 Rocket 4.3 23:03:10 10° N 23:09:18 55° ENE 23:12:54 25° SE
ATLAS CENTAUR R/B 4.4 23:10:02 10° W 23:14:06 24° NW 23:18:13 10° NNE
Landsat 7 3.8 23:14:36 26° S 23:17:17 79° WSW 23:22:05 10° NNW
CZ-4B R/B 4.4 23:12:33 10° N 23:17:22 48° WNW 23:22:17 10° SW
Cosmos 1953 Rocket 3.5 23:15:36 29° S 23:17:45 69° E 23:22:10 10° NNE
Lacrosse 5 4.1 23:14:07 10° WNW 23:18:22 26° NNW 23:22:37 10° NE
Cosmos 1766 3.4 23:20:21 10° N 23:24:19 63° E 23:25:34 40° SE
Cosmos 1943 3.2 23:21:12 20° S 23:25:05 64° ESE 23:30:44 10° NNE
Spot 2 4.3 23:26:12 10° NNE 23:30:53 71° ESE 23:33:16 30° S
BREEZE-M DEB (TANK) 2.8 23:29:14 10° WSW 23:31:00 35° WSW 23:31:00 35° WSW
CZ-4C R/B 4.4 23:29:37 23° SSW 23:31:53 42° W 23:35:52 10° NNW
Terra 1.8 23:30:52 32° S 23:33:05 79° WSW 23:37:53 10° NNW
SL-27 R/B 4.5 23:37:26 15° ENE 23:37:26 15° ENE 23:38:39 10° NE
Cosmos 1943 Rocket 2.6 23:34:26 10° NNW 23:39:52 53° ENE 23:42:31 29° ESE
SL-8 R/B 4.1 23:37:57 10° W 23:42:46 65° N 23:47:35 10° E
IGS 5A 3.7 23:42:30 38° SSW 23:43:56 63° WSW 23:48:04 10° NNW
Cosmos-2242 3.1 23:39:57 10° N 23:44:21 69° E 23:45:36 45° SSE
Atlas Centaur 2 3.9 23:39:50 10° SW 23:46:01 26° S 23:46:01 26° S
Cosmos 407 Rocket 3.4 23:45:24 31° S 23:48:00 76° ESE 23:53:14 10° NNE
COSMOS 2455 3.2 23:42:30 10° SW 23:48:29 67° NW 23:54:30 10° NNE
Cosmos 1953 2.3 23:48:08 10° N 23:52:07 67° E 23:52:49 54° SE
Cosmos 1758 Rocket 3.8 23:50:23 30° SSW 23:52:24 64° W 23:56:47 10° N
Cosmos 1470 4.2 23:51:28 10° NNE 23:54:43 24° ENE 23:55:14 24° E
